AO-07 1 07530U 74089B 25186.59128744 -.00000036 00000-0 67286-4 0 9998 2 07530 101.9930 191.1322 0012627 73.2247 37.8694 12.53689944317326 UO-11 1 14781U 84021B 25186.46599151 .00001086 00000-0 11993-3 0 9999 2 14781 97.7555 152.3253 0006351 247.1485 112.9063 14.89447513205496 AO-27 1 22825U 93061C 25186.72146793 .00000070 00000-0 43910-4 0 9997 2 22825 98.7355 248.4059 0009086 42.7752 317.4136 14.30806574657720 FO-29 1 24278U 96046B 25186.62901772 -.00000049 00000-0 -10044-4 0 9992 2 24278 98.5727 77.0912 0348844 275.1413 81.0009 13.53250089426290 NOAA-15 1 25338U 98030A 25186.89524240 .00000170 00000-0 87696-4 0 9995 2 25338 98.5339 211.3917 0009007 283.9276 76.0903 14.26992334412158 GO-32 1 25397U 98043D 25186.54330669 .00000051 00000-0 42142-4 0 9991 2 25397 98.9713 166.2060 0002208 114.0610 246.0800 14.24320384401984 ISS 1 25544U 98067A 25186.82847031 .00007133 00000-0 13106-3 0 9993 2 25544 51.6342 214.6801 0002507 338.0294 22.0587 15.50389624518054 NO-44 1 26931U 01043C 25186.42263117 .00000100 00000-0 68430-4 0 9993 2 26931 67.0512 61.0236 0006189 276.8302 83.2096 14.31745013240805 SO-50 1 27607U 02058C 25186.26852236 .00001231 00000-0 16997-3 0 9995 2 27607 64.5526 121.2367 0059198 328.4004 31.3552 14.81687633213032 CO-55 1 27844U 03031E 25186.53704777 .00000258 00000-0 13152-3 0 9994 2 27844 98.6754 194.4752 0010840 109.8328 250.4020 14.24012878142335 CO-57 1 27848U 03031J 25186.49760050 .00000213 00000-0 11326-3 0 9991 2 27848 98.6782 194.4225 0010525 125.3916 234.8248 14.23345222142059 RS-22 1 27939U 03042A 25186.76532589 .00000811 00000-0 13637-3 0 9999 2 27939 98.3299 356.8523 0010177 289.2042 127.4493 14.72402792164680 CO-58 1 28895U 05043F 25186.36555376 .00001293 00000-0 21855-3 0 9995 2 28895 98.2529 331.0432 0013696 221.2725 138.7447 14.71081264 50734 CO-65 1 32785U 08021C 25186.54308442 .00004698 00000-0 33852-3 0 9999 2 32785 97.7847 157.9028 0010978 120.9115 239.3191 15.04623246932987 CO-66 1 32791U 08021J 25186.85640703 .00009405 00000-0 44975-3 0 9998 2 32791 97.7279 167.4937 0005756 84.5622 275.6269 15.19209178934569 RS-30 1 32953U 08025A 25186.71862016 .00000034 00000-0 17706-3 0 9991 2 32953 82.5010 210.9229 0018956 352.7888 7.2916 12.43165929776787 NOAA-19 1 33591U 09005A 25186.82144963 .00000132 00000-0 94454-4 0 9990 2 33591 98.9962 251.6721 0012678 291.1166 68.8650 14.13385395845811 SRMSAT 1 37841U 11058D 25186.76466501 .00000372 00000-0 58441-4 0 9993 2 37841 19.9737 356.0944 0011794 353.2150 120.7272 14.11442479709030 ZACUBE-1 1 39417U 13066B 25186.85910233 .00003207 00000-0 27982-3 0 9996 2 39417 97.7801 143.7378 0043228 326.1433 33.7029 14.96862146628841 Delfi-N3xt 1 39428U 13066N 25186.37412719 .00005104 00000-0 51943-3 0 9993 2 39428 97.8333 103.7407 0082611 275.8531 83.3274 14.88666163622918 GOMX-1 1 39430U 13066Q 25186.80222500 .00001678 00000-0 26505-3 0 9999 2 39430 97.6814 43.8545 0133744 108.2862 253.2949 14.67723910619251 LO-74 1 39440U 13066AA 25186.39818183 .00003573 00000-0 36189-3 0 9997 2 39440 97.8497 130.7822 0063562 94.7339 266.1141 14.90071471625284 AO-73 1 39444U 13066AE 25186.71980784 .00005917 00000-0 44086-3 0 9993 2 39444 97.7799 148.7379 0041054 299.0554 60.6560 15.02621132628104 DTUSAT-2 1 40030U 14033W 25186.89201923 .00004940 00000-0 32064-3 0 9999 2 40030 98.0554 159.9897 0008343 341.6584 18.4341 15.08540853600878 EO-80 1 40032U 14033Y 25186.57922026 .00004990 00000-0 32323-3 0 9993 2 40032 98.0443 159.2805 0006601 273.4364 86.6107 15.08621467600296 LILACSAT-2 1 40908U 15049K 25186.87443806 .00009830 00000-0 25280-3 0 9992 2 40908 97.5051 207.8624 0010826 72.1418 288.1007 15.39419228542279 IO-86 1 40931U 15052B 25151.18580175 .00001241 00000-0 78118-4 0 9996 2 40931 6.0006 24.0987 0012733 338.8432 21.1169 14.78805930523047 Horyu-4 1 41340U 16012D 25186.51177913 .00019278 00000-0 49855-3 0 9999 2 41340 30.9977 317.4225 0006414 337.1261 22.9098 15.37820706516787 Lapan A3 1 41603U 16040E 25186.85864279 .00002510 00000-0 88756-4 0 9992 2 41603 97.1369 190.4370 0011365 166.0646 194.0911 15.30006290501805 CAS-2T 1 41847U 16066G 25186.26018026 .00001515 00000-0 22177-3 0 9994 2 41847 98.4195 260.4974 0347075 100.8200 263.2251 14.43561563454722 CAS-4B 1 42759U 17034B 25186.82696980 .00063974 00000-0 59064-3 0 9998 2 42759 43.0041 165.0705 0019104 115.3883 244.8963 15.66470828446714 CAS-4A 1 42761U 17034D 25186.83714913 .00070207 00000-0 60838-3 0 9997 2 42761 43.0080 161.8557 0020191 120.7712 239.5145 15.67963447446749 TechnoSat 1 42829U 17042E 25186.82953210 .00002425 00000-0 18986-3 0 9999 2 42829 97.3848 354.2809 0016369 185.3784 174.7268 15.01813751434668 AO-91 1 43017U 17073E 25186.59162867 .00008816 00000-0 44587-3 0 9993 2 43017 97.5221 56.7044 0172932 78.1307 283.9254 15.05087785413129 S-Net D 1 43186U 18014G 25186.70709680 .00003315 00000-0 19656-3 0 9997 2 43186 97.5603 89.3478 0010428 128.3888 231.8281 15.12022834406324 S-Net B 1 43187U 18014H 25186.24958512 .00003816 00000-0 22575-3 0 9997 2 43187 97.5612 88.8680 0011212 126.0383 234.1888 15.12000810406252 S-Net A 1 43188U 18014J 25186.77357572 .00003353 00000-0 19870-3 0 9995 2 43188 97.5617 89.5403 0011075 125.1307 235.0963 15.12028298406335 S-Net C 1 43189U 18014K 25186.78149264 .00003376 00000-0 20010-3 0 9997 2 43189 97.5634 89.5666 0012749 119.2131 241.0376 15.11999578404884 Ten-Koh 1 43677U 18084G 25186.46771555 .00001927 00000-0 15737-3 0 9995 2 43677 98.0850 359.7483 0007834 165.0289 195.1166 15.00668609364127 PO-101 1 43678U 18084H 25186.83314774 .00001993 00000-0 17224-3 0 9999 2 43678 98.1037 3.9599 0008439 188.1357 171.9728 14.98419135364317 QO-100 1 43700U 18090A 25186.84840938 .00000161 00000-0 00000 0 0 9995 2 43700 0.0165 66.5625 0002478 70.3732 118.3522 1.00273419 24444 MinXSS-2 1 43758U 18099A 25186.49266860 .00013475 00000-0 51923-3 0 9990 2 43758 97.5010 252.6214 0012810 70.1331 290.1286 15.26385443360929 AO-95 1 43770U 18099N 25186.10281284 .00007998 00000-0 40037-3 0 9996 2 43770 97.4904 243.9101 0012130 120.8950 239.3478 15.17601912360422 RANGE-A 1 43773U 18099R 25186.59129085 .00003732 00000-0 23767-3 0 9995 2 43773 97.4473 234.2392 0013117 102.0341 258.2359 15.09283700360142 MOVE-II 1 43780U 18099Y 25186.78630263 .00905858 38658-3 19490-2 0 9999 2 43780 97.4619 264.8077 0009612 245.3994 114.6282 15.98477593361954 SNUSat 2 1 43782U 18099AA 25186.69954950 .00006564 00000-0 35497-3 0 9992 2 43782 97.4586 241.0379 0013339 68.0236 292.2412 15.14926462360455 SnugLite 1 43784U 18099AC 25186.65476614 .00007208 00000-0 35810-3 0 9991 2 43784 97.4399 240.6078 0004933 77.4724 282.7062 15.17950603360593 ITASat 1 1 43786U 18099AE 25186.73444816 .00004907 00000-0 27924-3 0 9991 2 43786 97.4555 240.5045 0015959 114.3717 245.9182 15.13197739360419 EAGLET 1 1 43790U 18099AJ 25186.74074646 .00003367 00000-0 21511-3 0 9992 2 43790 97.4755 240.3803 0013827 99.5902 260.6891 15.09234822360015 ESEO 1 43792U 18099AL 25186.57185400 .00000665 00000-0 54106-4 0 9991 2 43792 97.4454 233.1331 0014704 75.3378 284.9476 15.02689870359727 CSIM 1 43793U 18099AM 25186.76194454 .00288356 00000-0 13347-2 0 9997 2 43793 97.4769 266.8028 0002097 137.9312 222.2118 15.82719746361778 JO-97 1 43803U 18099AX 25186.63521915 .00009994 00000-0 44904-3 0 9994 2 43803 97.4652 245.4845 0008549 62.9089 297.3018 15.21313339360735 Suomi 100 1 43804U 18099AY 25186.69219897 .00008054 00000-0 38945-3 0 9998 2 43804 97.4719 244.7618 0013527 62.4314 297.8293 15.18794098360661 ISAT 1 43879U 18111D 25186.32320408 .00018145 00000-0 61251-3 0 9994 2 43879 97.5939 101.2973 0010765 104.9605 255.2828 15.30690580357635 UWE-4 1 43880U 18111E 25186.70030770 .00012342 00000-0 47415-3 0 9997 2 43880 97.5882 99.9762 0013719 115.2982 244.9679 15.26500474355610 Sparrow 1 43881U 18111F 25186.74121884 .00017018 00000-0 55240-3 0 9999 2 43881 97.6086 104.7058 0008408 134.0972 226.0963 15.31990898355793 Prox-1 1 44339U 19036A 25186.57263639 .00008350 00000-0 10355-2 0 9997 2 44339 23.9966 251.0025 0007447 15.1093 344.9626 14.80375918321877 SONATE 1 44400U 19038Q 25185.47540524 .09032085 27445-5 31847-3 0 9995 2 44400 97.6609 216.4776 0012462 246.7970 113.2018 16.43248376333575 Taurus 1 1 44530U 19059C 25186.86772231 .00004323 00000-0 79650-3 0 9990 2 44530 98.6089 327.5162 0007988 317.6504 42.4081 14.66085103307791 Duchifat 3 1 44854U 19089C 25186.36712416 .00041603 00000-0 76002-3 0 9996 2 44854 36.9408 190.9940 0004975 189.7728 170.2933 15.48420559307015 TO-108 1 44881U 19093C 25186.82766312 .00000687 00000-0 85352-4 0 9992 2 44881 97.7919 261.9286 0014738 140.9859 219.2422 14.85643772299977 FloripaSat 1 1 44885U 19093G 25186.78891337 .00004983 00000-0 41884-3 0 9991 2 44885 97.8161 274.4446 0012656 116.3100 243.9424 14.98694891300679 RS-44 1 44909U 19096E 25186.58796398 .00000028 00000-0 72399-4 0 9992 2 44909 82.5195 209.9986 0216462 234.5962 123.4752 12.79741578258014 UPMSat 2 1 46276U 20061E 25186.17566227 .00079762 00000-0 60929-3 0 9992 2 46276 97.2421 261.4762 0002230 148.9295 211.2101 15.71943122269487 SALSAT 1 46495U 20068K 25186.50423724 .00006020 00000-0 25851-3 0 9995 2 46495 97.8610 165.7368 0013039 75.6375 284.6306 15.23030670262473 CubeSX-Sirius-HSE 1 47951U 21022V 25157.62701764 .07883385 25648-5 89537-3 0 9993 2 47951 97.4004 72.1904 0010275 223.9924 136.0557 16.36879307233400 CubeSX-HSE 1 47952U 21022W 25157.69972699 .06655353 25454-5 93288-3 0 9992 2 47952 97.3980 72.5414 0010307 219.3637 140.6911 16.34906352233436 GRBAlpha 1 47959U 21022AD 25160.45426279 .07940347 25506-5 90589-3 0 9995 2 47959 97.3899 75.6235 0011032 227.2558 132.7812 16.36806138232695 TUBIN 1 48900U 21059X 25186.80471121 .00036804 00000-0 41416-3 0 9994 2 48900 97.6756 358.2054 0004255 135.2330 224.9271 15.62489034224134 LEDSAT 1 49069U 21073D 25186.75834344 .00069137 00000-0 73001-3 0 9991 2 49069 97.3878 269.4517 0006890 336.6837 23.4108 15.63967248215529 CUTE 1 49263U 21088D 25186.74253574 .00013359 00000-0 25876-3 0 9994 2 49263 97.4503 263.7708 0009328 141.1638 219.0284 15.47795319208471 TeikyoSat 4 1 49396U 21102B 25186.56762962 .00001686 00000-0 11412-3 0 9995 2 49396 97.4089 224.0570 0013715 49.9604 310.2826 15.07732691200464 Z-Sat 1 49399U 21102E 25186.84852733 .00003505 00000-0 19263-3 0 9999 2 49399 97.3788 227.5870 0018322 18.7588 341.4315 15.14593735200952 KOSEN 1 1 49402U 21102H 25186.66666152 .00005919 00000-0 27252-3 0 9990 2 49402 97.3693 231.0242 0015217 354.2468 5.8590 15.20578266201259 HO-113 1 50466U 21131B 25186.87208089 .00000364 00000-0 12739-3 0 9991 2 50466 98.5107 276.0969 0005223 66.9035 293.2704 14.40839391185231 Foresail-1 1 52766U 22057AL 25176.64799660 .13857605 27391-5 25307-3 0 9992 2 52766 97.5832 331.2310 0012137 233.7199 258.4922 16.46795272172486 SNUGLITE 2 1 52899U 22065F 25186.33860223 .00000877 00000-0 17928-3 0 9999 2 52899 98.1718 328.0658 0008329 41.0627 319.1200 14.63261713160257 UmKA 1 (RS40S) 1 57172U 23091G 25186.88582129 .00004435 00000-0 23675-3 0 9994 2 57172 97.5569 242.1324 0012965 239.6403 120.3548 15.15586766111469 CubeBel-2 (EU11S) 1 57175U 23091K 25186.84547315 .00007638 00000-0 36026-3 0 9993 2 57175 97.5568 243.4011 0010668 246.4012 113.6103 15.19714749111547 VERONIKA 1 58261U 23174F 25186.77467425 .00205650 00000-0 11714-2 0 9997 2 58261 97.4088 274.6721 0005073 253.5199 106.5510 15.78358270 92801 ENSO 1 58470U 23185J 25186.85652937 .00048603 00000-0 63799-3 0 9998 2 58470 97.3722 262.8650 0004785 348.0597 12.0545 15.58380920 89123 EIRSAT-1 1 58472U 23185L 25186.83845972 .00123655 00000-0 90030-3 0 9990 2 58472 97.3664 265.2562 0002516 308.2121 51.8916 15.72944785 89281 SONATE-2 1 59112U 24043Q 25186.29053445 .00014540 00000-0 41007-3 0 9994 2 59112 97.5159 318.0010 0011099 29.6809 330.5063 15.36454581 74286 MO-122 1 60209U 24125G 25186.55934665 .00015128 00000-0 41898-3 0 9996 2 60209 97.2775 37.8968 0019454 48.7088 311.5828 15.36872111 55941 GRBBeta 1 60237U 24128C 25186.88646454 .00003208 00000-0 24671-3 0 9998 2 60237 61.9925 347.8215 0053827 63.2985 297.3602 15.02824491 54150 Curium One 1 60242U 24128H 25186.87846169 .00005667 00000-0 39487-3 0 9990 2 60242 61.9823 345.7480 0053747 59.5608 301.0778 15.05437606 54197 ROBUSTA-3A 1 60243U 24128J 25186.62359149 .00005744 00000-0 40570-3 0 9992 2 60243 61.9896 347.5569 0052684 57.2136 303.4016 15.04959279 54146 CatSat 1 60246U 24125J 25186.58059967 .00008350 00000-0 27554-3 0 9995 2 60246 97.2574 36.8329 0041956 4.0553 356.1020 15.30803078 53962 HYPERVIEW-1G (RS66S) 1 61772U 24199AP 25186.86604490 .00017214 00000-0 48542-3 0 9998 2 61772 97.3509 55.6808 0015335 98.7830 261.5152 15.36357811 80990 AO-123 1 61781U 24199AY 25186.89714299 .00005305 00000-0 19231-3 0 9991 2 61781 97.3523 54.3097 0017520 103.4990 256.8203 15.28643683 80902 ZIMSAT 2 1 61783U 24199BA 25186.88889999 .00031806 00000-0 73708-3 0 9996 2 61783 97.3483 56.5282 0015040 96.2638 264.0323 15.42247177 84207 HADES-R (SO-124) 1 62690U 25009CK 25186.18357588 .00035098 00000-0 11842-2 0 9999 2 62690 97.4090 266.9148 0002019 36.2261 323.9116 15.30616569 26063 HYDRA-T 1 62692U 25009CM 25186.16448691 .00031582 00000-0 10569-2 0 9994 2 62692 97.4089 266.9393 0001644 33.9428 326.1918 15.30904540 26061 JINJUSat 1B 1 63210U 25052A 25186.51802448 .00009516 00000-0 43075-3 0 9993 2 63210 97.4393 80.3172 0003017 206.3144 153.7938 15.21099963 17190 NUSHSAT 1 1 63211U 25052B 25186.70596280 .00010278 00000-0 46111-3 0 9990 2 63211 97.4386 80.5105 0002855 211.6132 148.4933 15.21383284 17228 TEVEL2-4 1 63213U 25052D 25186.65904366 .00010002 00000-0 45307-3 0 9995 2 63213 97.4299 80.3002 0001616 233.5795 126.5292 15.21063991 17213 TEVEL2-5 1 63214U 25052E 25186.19947341 .00010732 00000-0 48629-3 0 9995 2 63214 97.4304 79.8456 0001572 236.1916 123.9170 15.21033631 17148 TEVEL2-6 1 63215U 25052F 25186.20228813 .00010541 00000-0 47826-3 0 9990 2 63215 97.4301 79.8428 0001591 239.3011 120.8068 15.20993148 17146 TEVEL2-1 1 63217U 25052H 25186.21705802 .00009997 00000-0 45672-3 0 9991 2 63217 97.4277 79.7874 0001585 271.5177 88.5877 15.20770658 17145 TEVEL2-2 1 63218U 25052J 25186.67792967 .00009140 00000-0 41775-3 0 9990 2 63218 97.4277 80.2424 0001663 269.7659 90.3386 15.20779670 17212 TEVEL2-3 1 63219U 25052K 25186.21756234 .00009961 00000-0 45513-3 0 9993 2 63219 97.4276 79.7876 0001635 273.4753 86.6295 15.20765680 17147 TEVEL2-8 1 63237U 25052AD 25186.63265687 .00009055 00000-0 42868-3 0 9990 2 63237 97.4342 80.0907 0006153 288.5685 71.4881 15.19553333 17198 TEVEL2-9 1 63238U 25052AE 25186.70191694 .00009036 00000-0 42857-3 0 9992 2 63238 97.4342 80.1535 0006203 288.1034 71.9524 15.19489313 17204 TEVEL2-7 1 63239U 25052AF 25186.63859771 .00009182 00000-0 43590-3 0 9999 2 63239 97.4340 80.0838 0006224 288.7200 71.3358 15.19454780 17199 HYDRA-W 1 63490U 25052BL 25186.48434588 .00022038 00000-0 90114-3 0 9995 2 63490 97.4290 80.3664 0009207 282.5816 77.4391 15.24327414 17206 HADES-ICM (SO-125) 1 63492U 25052BN 25186.17873404 .00023981 00000-0 99464-3 0 9992 2 63492 97.4297 80.0185 0009698 288.9467 71.0719 15.23824882 17154